User: anonymous   Login
Location: Albany
(35.0000°S, 118.0000°E)
Time: 07:36:42
(UTC-04:00)
Language:

SJ-6B - Orbit

View from above orbital plane
View from above orbital plane
View from above satellite
View from above satellite

Ground track
Ground track

The orbit data is extracted from the following two-line orbital elements,

1 28415U 04035C   16149.64205820  .00000350  00000-0  28147-4 0  9994
2 28415  97.7782 170.1000 0052584 347.3242  12.6658 15.05708859640703
Epoch (UTC): 28 May 2016 15:24:33
Eccentricity: 0.0052584
inclination: 97.7782°
perigee height: 513 km
apogee height: 586 km
right ascension of ascending node: 170.1000°
argument of perigee: 347.3242°
revolutions per day: 15.05708859
mean anomaly at epoch: 12.6658°
orbit number at epoch: 64070

The dashed part of the orbit path shows where the satellite is in the earth's shadow,  

DLR